sat.trackr.live / text

‹ back to catalog

INTELSAT 36 (IS-36)

NORAD 41747 · 2016-053A

PAYLOAD ACTIVE UNKNOWN

§ Identity

Operator
Country
ITSO
Launch date
2016-08-24
Launch site
FRGUI
Launch vehicle
Mass (kg)
RCS (m²)
6.49

Purposes: comms

External: N2YO · Heavens-Above · Gunter

§ Orbital elements

Epoch: 2026-09-19T03:36:44.616960Z

Period
1,436.13 min
Inclination
0.0132°
Eccentricity
0.0001783
Mean motion
1.00269607 rev/d
Perigee alt
35,779.7 km
Apogee alt
35,794.7 km
Semi-major
42,165.3 km
B*
0.0000e+0
RAAN
139.6343°
Arg perigee
217.0110°
Mean anomaly
124.1087°
Rev number
3,690

§ Raw data

INTELSAT 36 (IS-36)1 41747U 16053A   26262.15051640  .00000000  00000+0  00000+0 0  99962 41747   0.0132 139.6343 0001783 217.0110 124.1087  1.00269607 36903

JSON: /api/v1/satellites/41747 · /tle

For live sub-satellite position, see the globe view (requires WebGL).

§ Visibility from observer

Set your observer location to see the next 7 days of passes ≥ 10°. The values pass through the URL so the page stays shareable.

No JS? Fill the form by hand. The geolocation button needs JavaScript.